Time,TemperatureF,DewpointF,PressureIn,WindDirection,WindDirectionDegrees,WindSpeedMPH,WindSpeedGustMPH,Humidity,HourlyPrecipIn,Conditions,Clouds,dailyrainin,SoftwareType,DateUTC
2013-04-13 00:33:00,43.0,-99.9,29.70,North,6,14.0,24.0,-999,-99.99,,,-99.99,,2013-04-13 04:33:00,
2013-04-13 00:42:00,43.0,-99.9,29.70,North,6,14.0,24.0,-999,-99.99,,,-99.99,,2013-04-13 04:42:00,
2013-04-13 00:53:00,42.0,-99.9,29.69,NNE,17,12.0,19.0,-999,-99.99,,,-99.99,,2013-04-13 04:53:00,
2013-04-13 01:23:00,42.0,-99.9,29.69,NNE,17,12.0,19.0,-999,-99.99,,,-99.99,,2013-04-13 05:23:00,
2013-04-13 01:32:00,42.0,-99.9,29.69,NNE,17,12.0,19.0,-999,-99.99,,,-99.99,,2013-04-13 05:32:00,
2013-04-13 01:43:00,42.0,-99.9,29.69,NNE,17,12.0,19.0,-999,-99.99,,,-99.99,,2013-04-13 05:43:00,
2013-04-13 01:53:00,43.0,-99.9,29.71,NNE,26,10.0,17.0,-999,-99.99,,,-99.99,,2013-04-13 05:53:00,
2013-04-13 02:37:00,43.0,-99.9,29.71,NNE,26,10.0,17.0,-999,-99.99,,,-99.99,,2013-04-13 06:37:00,
2013-04-13 02:49:00,43.0,-99.9,29.71,NNE,26,10.0,17.0,-999,-99.99,,,-99.99,,2013-04-13 06:49:00,
2013-04-13 02:53:00,43.0,-99.9,29.73,North,-999,11.0,18.0,-999,-99.99,,,-99.99,,2013-04-13 06:53:00,
2013-04-13 03:37:00,43.0,-99.9,29.73,North,-999,11.0,18.0,-999,-99.99,,,-99.99,,2013-04-13 07:37:00,
2013-04-13 03:53:00,43.0,-99.9,29.76,North,-999,9.0,14.0,-999,-99.99,,,-99.99,,2013-04-13 07:53:00,
2013-04-13 04:27:00,43.0,-99.9,29.76,North,-999,9.0,14.0,-999,-99.99,,,-99.99,,2013-04-13 08:27:00,
2013-04-13 04:35:00,43.0,-99.9,29.76,North,-999,9.0,14.0,-999,-99.99,,,-99.99,,2013-04-13 08:35:00,
2013-04-13 04:47:00,43.0,-99.9,29.76,North,-999,9.0,14.0,-999,-99.99,,,-99.99,,2013-04-13 08:47:00,
2013-04-13 04:53:00,43.0,-99.9,29.77,NNE,26,7.0,11.0,-999,-99.99,,,-99.99,,2013-04-13 08:53:00,
2013-04-13 05:25:00,43.0,-99.9,29.77,NNE,26,7.0,11.0,-999,-99.99,,,-99.99,,2013-04-13 09:25:00,
2013-04-13 05:38:00,43.0,-99.9,29.77,NNE,26,7.0,11.0,-999,-99.99,,,-99.99,,2013-04-13 09:38:00,
2013-04-13 05:53:00,43.0,-99.9,29.78,North,7,10.0,13.0,-999,-99.99,,,-99.99,,2013-04-13 09:53:00,
2013-04-13 06:25:00,43.0,-99.9,29.78,North,7,10.0,13.0,-999,-99.99,,,-99.99,,2013-04-13 10:25:00,
2013-04-13 06:38:00,43.0,-99.9,29.78,North,7,10.0,13.0,-999,-99.99,,,-99.99,,2013-04-13 10:38:00,
2013-04-13 06:51:00,43.0,-99.9,29.78,North,7,10.0,13.0,-999,-99.99,,,-99.99,,2013-04-13 10:51:00,
2013-04-13 06:53:00,43.0,-99.9,29.81,North,1,-999.0,10.0,-999,-99.99,,,-99.99,,2013-04-13 10:53:00,
2013-04-13 07:35:00,43.0,-99.9,29.81,North,1,-999.0,10.0,-999,-99.99,,,-99.99,,2013-04-13 11:35:00,
2013-04-13 07:47:00,43.0,-99.9,29.81,North,1,-999.0,10.0,-999,-99.99,,,-99.99,,2013-04-13 11:47:00,
2013-04-13 07:53:00,44.0,-99.9,29.83,NNW,335,7.0,10.0,-999,-99.99,,,-99.99,,2013-04-13 11:53:00,
2013-04-13 08:37:00,44.0,-99.9,29.83,NNW,335,7.0,10.0,-999,-99.99,,,-99.99,,2013-04-13 12:37:00,
2013-04-13 08:49:00,44.0,-99.9,29.83,NNW,335,7.0,10.0,-999,-99.99,,,-99.99,,2013-04-13 12:49:00,
2013-04-13 08:53:00,46.0,-99.9,29.84,WNW,293,-999.0,6.0,-999,-99.99,,,-99.99,,2013-04-13 12:53:00,
2013-04-13 09:37:00,46.0,-99.9,29.84,WNW,293,-999.0,6.0,-999,-99.99,,,-99.99,,2013-04-13 13:37:00,
2013-04-13 09:49:00,46.0,-99.9,29.84,WNW,293,-999.0,6.0,-999,-99.99,,,-99.99,,2013-04-13 13:49:00,
2013-04-13 09:53:00,47.0,-99.9,29.85,SE,132,5.0,8.0,-999,-99.99,,,-99.99,,2013-04-13 13:53:00,
2013-04-13 10:24:00,47.0,-99.9,29.85,SE,132,5.0,8.0,-999,-99.99,,,-99.99,,2013-04-13 14:24:00,
2013-04-13 10:40:00,47.0,-99.9,29.85,SE,132,5.0,8.0,-999,-99.99,,,-99.99,,2013-04-13 14:40:00,
2013-04-13 10:48:00,47.0,-99.9,29.85,SE,132,5.0,8.0,-999,-99.99,,,-99.99,,2013-04-13 14:48:00,
2013-04-13 10:53:00,46.0,-99.9,29.85,South,180,9.0,9.0,-999,-99.99,,,-99.99,,2013-04-13 14:53:00,
2013-04-13 11:30:00,46.0,-99.9,29.85,South,180,9.0,9.0,-999,-99.99,,,-99.99,,2013-04-13 15:30:00,
2013-04-13 11:38:00,46.0,-99.9,29.85,South,180,9.0,9.0,-999,-99.99,,,-99.99,,2013-04-13 15:38:00,
2013-04-13 11:45:00,46.0,-99.9,29.85,South,180,9.0,9.0,-999,-99.99,,,-99.99,,2013-04-13 15:45:00,
2013-04-13 11:53:00,48.0,-99.9,29.84,South,179,7.0,8.0,-999,-99.99,,,-99.99,,2013-04-13 15:53:00,
2013-04-13 12:25:00,48.0,-99.9,29.84,South,179,7.0,8.0,-999,-99.99,,,-99.99,,2013-04-13 16:25:00,
2013-04-13 12:37:00,48.0,-99.9,29.84,South,179,7.0,8.0,-999,-99.99,,,-99.99,,2013-04-13 16:37:00,
2013-04-13 12:48:00,48.0,-99.9,29.84,South,179,7.0,8.0,-999,-99.99,,,-99.99,,2013-04-13 16:48:00,
2013-04-13 12:53:00,46.0,-99.9,29.84,South,169,12.0,13.0,-999,-99.99,,,-99.99,,2013-04-13 16:53:00,
2013-04-13 13:39:00,46.0,-99.9,29.84,South,169,12.0,13.0,-999,-99.99,,,-99.99,,2013-04-13 17:39:00,
2013-04-13 13:45:00,46.0,-99.9,29.84,South,169,12.0,13.0,-999,-99.99,,,-99.99,,2013-04-13 17:45:00,
2013-04-13 13:53:00,48.0,-99.9,29.84,SSW,209,9.0,12.0,-999,-99.99,,,-99.99,,2013-04-13 17:53:00,
2013-04-13 14:25:00,48.0,-99.9,29.84,SSW,209,9.0,12.0,-999,-99.99,,,-99.99,,2013-04-13 18:25:00,
2013-04-13 14:33:00,48.0,-99.9,29.84,SSW,209,9.0,12.0,-999,-99.99,,,-99.99,,2013-04-13 18:33:00,
2013-04-13 14:42:00,48.0,-99.9,29.84,SSW,209,9.0,12.0,-999,-99.99,,,-99.99,,2013-04-13 18:42:00,
2013-04-13 14:53:00,48.0,-99.9,29.84,South,185,10.0,14.0,-999,-99.99,,,-99.99,,2013-04-13 18:53:00,
2013-04-13 15:23:00,48.0,-99.9,29.84,South,185,10.0,14.0,-999,-99.99,,,-99.99,,2013-04-13 19:23:00,
2013-04-13 15:33:00,48.0,-99.9,29.84,South,185,10.0,14.0,-999,-99.99,,,-99.99,,2013-04-13 19:33:00,
2013-04-13 15:42:00,48.0,-99.9,29.84,South,185,10.0,14.0,-999,-99.99,,,-99.99,,2013-04-13 19:42:00,
2013-04-13 15:53:00,47.0,-99.9,29.83,South,183,9.0,16.0,-999,-99.99,,,-99.99,,2013-04-13 19:53:00,
2013-04-13 16:33:00,47.0,-99.9,29.83,South,183,9.0,16.0,-999,-99.99,,,-99.99,,2013-04-13 20:33:00,
2013-04-13 16:42:00,47.0,-99.9,29.83,South,183,9.0,16.0,-999,-99.99,,,-99.99,,2013-04-13 20:42:00,
2013-04-13 16:53:00,47.0,-99.9,29.84,South,172,9.0,13.0,-999,-99.99,,,-99.99,,2013-04-13 20:53:00,
2013-04-13 17:22:00,47.0,-99.9,29.84,South,172,9.0,13.0,-999,-99.99,,,-99.99,,2013-04-13 21:22:00,
2013-04-13 17:33:00,47.0,-99.9,29.84,South,172,9.0,13.0,-999,-99.99,,,-99.99,,2013-04-13 21:33:00,
2013-04-13 17:43:00,47.0,-99.9,29.84,South,172,9.0,13.0,-999,-99.99,,,-99.99,,2013-04-13 21:43:00,
2013-04-13 17:53:00,48.0,-99.9,29.85,South,180,8.0,15.0,-999,-99.99,,,-99.99,,2013-04-13 21:53:00,
2013-04-13 18:23:00,48.0,-99.9,29.85,South,180,8.0,15.0,-999,-99.99,,,-99.99,,2013-04-13 22:23:00,
2013-04-13 18:33:00,48.0,-99.9,29.85,South,180,8.0,15.0,-999,-99.99,,,-99.99,,2013-04-13 22:33:00,
2013-04-13 18:42:00,48.0,-99.9,29.85,South,180,8.0,15.0,-999,-99.99,,,-99.99,,2013-04-13 22:42:00,
2013-04-13 18:53:00,47.0,-99.9,29.85,South,188,11.0,14.0,-999,-99.99,,,-99.99,,2013-04-13 22:53:00,
2013-04-13 19:33:00,47.0,-99.9,29.85,South,188,11.0,14.0,-999,-99.99,,,-99.99,,2013-04-13 23:33:00,
2013-04-13 19:43:00,47.0,-99.9,29.85,South,188,11.0,14.0,-999,-99.99,,,-99.99,,2013-04-13 23:43:00,
2013-04-13 20:22:00,47.0,-99.9,29.86,SSW,199,9.0,13.0,-999,-99.99,,,-99.99,,2013-04-14 00:22:00,
2013-04-13 20:32:00,47.0,-99.9,29.86,SSW,199,9.0,13.0,-999,-99.99,,,-99.99,,2013-04-14 00:32:00,
2013-04-13 20:42:00,47.0,-99.9,29.86,SSW,199,9.0,13.0,-999,-99.99,,,-99.99,,2013-04-14 00:42:00,
2013-04-13 20:52:00,47.0,-99.9,29.86,SSW,199,9.0,13.0,-999,-99.99,,,-99.99,,2013-04-14 00:52:00,
2013-04-13 20:53:00,46.0,-99.9,29.87,SW,219,8.0,12.0,-999,-99.99,,,-99.99,,2013-04-14 00:53:00,
2013-04-13 21:23:00,46.0,-99.9,29.87,SW,219,8.0,12.0,-999,-99.99,,,-99.99,,2013-04-14 01:23:00,
2013-04-13 21:33:00,46.0,-99.9,29.87,SW,219,8.0,12.0,-999,-99.99,,,-99.99,,2013-04-14 01:33:00,
2013-04-13 21:43:00,46.0,-99.9,29.87,SW,219,8.0,12.0,-999,-99.99,,,-99.99,,2013-04-14 01:43:00,
2013-04-13 21:53:00,47.0,-99.9,29.89,West,272,4.0,11.0,-999,-99.99,,,-99.99,,2013-04-14 01:53:00,
2013-04-13 22:23:00,47.0,-99.9,29.89,West,272,4.0,11.0,-999,-99.99,,,-99.99,,2013-04-14 02:23:00,
2013-04-13 22:33:00,47.0,-99.9,29.89,West,272,4.0,11.0,-999,-99.99,,,-99.99,,2013-04-14 02:33:00,
2013-04-13 22:43:00,47.0,-99.9,29.89,West,272,4.0,11.0,-999,-99.99,,,-99.99,,2013-04-14 02:43:00,
2013-04-13 22:53:00,47.0,-99.9,29.91,SSW,202,-999.0,5.0,-999,-99.99,,,-99.99,,2013-04-14 02:53:00,
2013-04-13 23:22:00,47.0,-99.9,29.91,SSW,202,-999.0,5.0,-999,-99.99,,,-99.99,,2013-04-14 03:22:00,
2013-04-13 23:33:00,47.0,-99.9,29.91,SSW,202,-999.0,5.0,-999,-99.99,,,-99.99,,2013-04-14 03:33:00,
2013-04-13 23:43:00,47.0,-99.9,29.91,SSW,202,-999.0,5.0,-999,-99.99,,,-99.99,,2013-04-14 03:43:00,
2013-04-13 23:53:00,49.0,-99.9,29.95,SW,222,-999.0,-999.0,-999,-99.99,,,-99.99,,2013-04-14 03:53:00,